ONEWEB-0687, 61595

Orbit data source: Space-Track

ONEWEB-0687, 61595 is a payload satellite owned by Eut. One Web (UK) in LEO that was launched on Sun, 20 Oct 2024 UTC via an FALCON 9 launch vehicle from the Air Force Western Test Range (AFWTR). Payload-class satellites include a variety of spacecraft equipped with specific instruments for various scientific and technological missions. These include communications satellites like Starlink; space stations such as the ISS; scientific satellites like the Hubble; Earth observation satellites from companies like Planet Labs, Umbra, and HawkEye 360; GPS; miniature CubeSats for education and research; and military/defense satellites.

Loading next visibility...
Identifier
61595, 2024-188B
Orbit
LEO
Last TLE update
2 days ago
Origin
Manufacturer
One Web
Mission
Operational Commercial Communications
Bus & Motor
ARROW, Unknown motor
Mass
148 kg wet, ~140 kg dry
Launch date (UTC)
2024-10-20 (8 months ago)
Launch vehicle
FALCON 9
Launch site
Air Force Western Test Range (AFWTR)
Object type
Payload
Rocket body
Debris
Shape & HBR
Trap Box + 2 Pan, 5 m
Radar Cross Section
2.032 m², Large (>1 m²)

Expand to show TLE details & history

TLE from 2 days ago
0 ONEWEB-0687
1 61595U 24188B   25179.98130876 -.00137667  00000-0 -32766+0 0  9990
2 61595  87.9317  76.2315 0003605  82.2866 277.8679 13.24007774 39387
Epoch: 2025-06-28T23:33Z
TLE epoch observation values (Epoch: 2025-06-28T23:33:05.076Z)
Latitude
0.00001°
Longitude
165.64833°
Altitude
1,171.987 km
Speed
7.268 km/s
True Right ascension
05h 04m 55s
True Declination
0° 00' 00"
Sunlit
Object was in daylight at epoch
Visualization orbit readout
Latitude
-44.52811°
Longitude
163.14312°
Altitude
1,190.545 km
Speed
7.257 km/s
Apparent Right ascension
06h 51m 20s
Apparent Declination
-46° 34' 38"
Sunlit
Object is in daylight
Visualization observer readout
Local Sidereal Time
21:01:09
Azimuth
116.621° SE
Elevation
-65.633°
Doppler factor
1
Orbital elements
Apogee altitude
1,169.27 km
Perigee altitude
1,163.83 km
Semi-major axis
7,544.687 km
Eccentricity
0.00036
Inclination
87.9317°
RAAN
76.2315°
Arg. of periapsis
82.2866°
True anomaly
Unknown
Mean anomaly
277.8679°
Eccentric anomaly
Unknown
Mean motion
3.31193 °/min
Orbital period
108.7 mins
BSTAR
-0.32766
Loading maneuver chart data...
Loading SW <> Apogee altitude chart data...
Loading historical data...
Loading historical data...
Loading historical data...
Loading historical data...
Loading historical data...
Loading historical data...
Loading historical data...

ONEWEB-0687 Visibility forecast

Observer location: undefined°, undefined°

Span
Click to sort rows by Start time (UTC) header in descending order
Start Az.
Max El. time (UTC)
Max El. Az.
Max El.
End time (UTC)
End Az.
13 mins2025-07-01 16:57:52.801Z160.922° S2025-07-01 17:03:52.801Z88.307° E40.862°2025-07-01 17:10:52.801Z8.14° NNE
8 mins2025-07-01 18:49:52.801Z246.588° WSW2025-07-01 18:52:52.801Z277.934° WNW21.504°2025-07-01 18:57:52.801Z328.319° NNW
12 mins2025-07-02 04:21:52.801Z17.664° NNE2025-07-02 04:26:52.801Z73.168° E33.931°2025-07-02 04:33:52.801Z152.471° SSE
10 mins2025-07-02 06:11:52.801Z330.042° NNW2025-07-02 06:15:52.801Z283.255° WNW28.447°2025-07-02 06:21:52.801Z221.927° SW
|